TimeEST,TemperatureF,Dew PointF,Humidity,Sea Level PressureIn,VisibilityMPH,Wind Direction,Wind SpeedMPH,Gust SpeedMPH,PrecipitationIn,Events,Conditions,WindDirDegrees,DateUTC
12:55 AM,37.9,30.0,73,30.09,10.0,SW,17.3,25.3,N/A,,Clear,230,2013-01-08 05:55:00
1:55 AM,37.9,30.0,73,30.10,10.0,SW,16.1,-,N/A,,Clear,230,2013-01-08 06:55:00
2:55 AM,37.0,30.0,76,30.12,9.0,SW,12.7,19.6,N/A,,Partly Cloudy,230,2013-01-08 07:55:00
3:55 AM,37.0,30.0,76,30.11,9.0,WSW,8.1,-,N/A,,Clear,240,2013-01-08 08:55:00
4:55 AM,37.0,30.0,76,30.11,8.0,SW,8.1,-,N/A,,Partly Cloudy,230,2013-01-08 09:55:00
5:34 AM,37.4,30.2,75,30.09,8.0,SW,5.8,-,N/A,,Mostly Cloudy,230,2013-01-08 10:34:00
5:55 AM,37.0,30.0,76,30.12,8.0,SW,8.1,-,N/A,,Mostly Cloudy,220,2013-01-08 10:55:00
6:55 AM,36.0,30.0,79,30.13,8.0,SSW,5.8,-,N/A,,Mostly Cloudy,210,2013-01-08 11:55:00
7:21 AM,35.6,30.2,81,30.11,7.0,SSW,5.8,-,N/A,,Scattered Clouds,200,2013-01-08 12:21:00
7:50 AM,35.6,30.2,81,30.13,7.0,WSW,3.5,-,N/A,,Mostly Cloudy,250,2013-01-08 12:50:00
7:55 AM,36.0,30.9,82,30.14,7.0,SW,3.5,-,N/A,,Mostly Cloudy,230,2013-01-08 12:55:00
8:55 AM,34.0,28.9,82,30.16,4.0,SE,5.8,-,N/A,,Haze,140,2013-01-08 13:55:00
9:55 AM,36.0,30.9,82,30.17,5.0,South,8.1,-,N/A,,Haze,170,2013-01-08 14:55:00
10:55 AM,37.9,30.9,76,30.18,6.0,South,10.4,-,N/A,,Haze,180,2013-01-08 15:55:00
11:39 AM,39.2,30.2,70,30.15,7.0,South,8.1,-,N/A,,Scattered Clouds,180,2013-01-08 16:39:00
11:55 AM,39.0,30.9,73,30.17,6.0,South,10.4,-,N/A,,Haze,180,2013-01-08 16:55:00
12:49 PM,37.4,30.2,75,30.13,5.0,South,13.8,-,N/A,,Haze,180,2013-01-08 17:49:00
12:55 PM,37.9,30.9,76,30.15,5.0,South,11.5,-,N/A,,Haze,180,2013-01-08 17:55:00
1:30 PM,37.4,30.2,75,30.13,6.0,South,12.7,-,N/A,,Haze,180,2013-01-08 18:30:00
1:55 PM,37.9,30.9,76,30.14,6.0,South,13.8,-,N/A,,Haze,190,2013-01-08 18:55:00
2:55 PM,37.9,30.0,73,30.14,7.0,South,11.5,-,N/A,,Scattered Clouds,190,2013-01-08 19:55:00
3:55 PM,37.9,28.9,70,30.15,8.0,South,5.8,-,N/A,,Partly Cloudy,190,2013-01-08 20:55:00
4:55 PM,37.9,27.0,65,30.14,8.0,SE,6.9,-,N/A,,Partly Cloudy,140,2013-01-08 21:55:00
5:55 PM,35.1,26.1,70,30.14,9.0,SE,5.8,-,N/A,,Partly Cloudy,140,2013-01-08 22:55:00
6:55 PM,32.0,26.1,79,30.12,7.0,SE,5.8,-,N/A,,Partly Cloudy,130,2013-01-08 23:55:00
7:55 PM,35.1,25.0,67,30.10,9.0,SSE,8.1,-,N/A,,Clear,150,2013-01-09 00:55:00
8:55 PM,36.0,25.0,64,30.11,10.0,South,13.8,-,N/A,,Clear,170,2013-01-09 01:55:00
9:55 PM,36.0,26.1,67,30.08,10.0,South,12.7,-,N/A,,Clear,170,2013-01-09 02:55:00
10:55 PM,37.0,27.0,67,30.07,10.0,South,13.8,23.0,N/A,,Clear,180,2013-01-09 03:55:00
11:55 PM,37.4,28.4,70,30.04,10.0,South,18.4,25.3,N/A,,Partly Cloudy,190,2013-01-09 04:55:00